User: anonymous   Login
Location: Unspecified
(0.0000°N, 0.0000°E)
Time: 09:22:24
(UTC+00:00)
Language:

KAITUO 1B - Orbit

View from above orbital plane
View from above orbital plane
View from above satellite
View from above satellite

Ground track
Ground track

The orbit data is extracted from the following two-line orbital elements,

1 40912U 15049P   17086.84661899 +.00001670 +00000-0 +86900-4 0  9999
2 40912 097.4529 095.9165 0017552 122.1737 322.1711 15.17294415083953
Epoch (UTC): 27 March 2017 20:19:07
Eccentricity: 0.0017552
inclination: 97.4529°
perigee height: 502 km
apogee height: 526 km
right ascension of ascending node: 95.9165°
argument of perigee: 122.1737°
revolutions per day: 15.17294415
mean anomaly at epoch: 322.1711°
orbit number at epoch: 8395

The dashed part of the orbit path shows where the satellite is in the earth's shadow,  

DLR